Tracking 19177 objects as of 24-May-2018
HD Live streaming from Space Station
objects crossing your sky now

TRITON 1

Track TRITON 1 now!
10-day predictions
TRITON 1 is classified as:


NORAD ID: 39427
Int'l Code: 2013-066M
Perigee: 595.7 km
Apogee: 755.7 km
Inclination: 97.6 °
Period: 98.1 minutes
Semi major axis: 7046 km
RCS: Unknown
Launch date: November 21, 2013
Source: United Kingdom (UK)
Launch site: Orenburg, Russia (OREN)
Uplink (MHz): 435.xxx
Downlink (MHz): 145.818/145.823
Beacon (MHz): 2408.000
Mode: 1200bps RC-BPSK CW
Call sign: TRIV0 TRIV1
Status: Inactive

aabbcc
Your satellite tracking list
Your tracking list is empty




NASA's NSSDC Master Catalog

Two Line Element Set (TLE):
1 39427U 13066M   18143.89318621  .00000216  00000-0  42679-4 0  9997
2 39427  97.6408 141.4289 0113495 337.9645  21.6701 14.67660604241015
Source of the keplerian elements: Caltech